Location: Colle San Luigi
(43.5500°N, 13.4167°E)
Time: 13:03:15
(UTC+00:00)

STARLINK-1235 - Pass Details

Date: 09 April 2020
Orbit: 375 x 384 km, 53.0° (Epoch: 27 May)

Event Time Altitude Azimuth Distance (km) Brightness Sun altitude
Rises 18:15:43 0° 308° (NW) 2,277 8.3 -6.6°
Reaches altitude 10° 18:17:56 10° 320° (NW) 1,420 6.8 -7.0°
Maximum altitude 18:20:47 30° 24° (NNE) 731 4.2 -7.4°
Drops below altitude 10° 18:23:38 10° 88° (E) 1,413 5.1 -7.9°
Enters shadow 18:23:42 10° 89° (E) 1,441 5.2 -7.9°
